Blattenbach Aussen Messungen

Zurück zum Überblick

Zeitpunkt Temperatur Temperatur Kabelsensor Luftfeuchte
25.03.2019 15:12:02 8,5 C 9,1 C 47,0%
25.03.2019 15:05:00 8,4 C 9,1 C 48,0%
25.03.2019 14:58:03 8,3 C 9,1 C 49,0%
25.03.2019 14:50:59 8,1 C 9,1 C 51,0%
25.03.2019 14:44:01 7,9 C 9,1 C 50,0%
25.03.2019 14:37:01 8,1 C 9,1 C 50,0%
25.03.2019 14:30:00 8,2 C 9,1 C 50,0%
25.03.2019 14:23:01 8,5 C 9,1 C 50,0%
25.03.2019 14:16:02 8,7 C 9,1 C 50,0%
25.03.2019 14:09:01 9,0 C 9,1 C 49,0%
25.03.2019 14:02:02 9,2 C 9,1 C 50,0%
25.03.2019 13:55:03 9,1 C 9,1 C 51,0%
25.03.2019 13:48:00 8,9 C 9,1 C 51,0%
25.03.2019 13:40:47 9,3 C 9,1 C 52,0%
25.03.2019 13:33:47 9,6 C 9,1 C 51,0%
25.03.2019 13:26:46 10,0 C 9,1 C 51,0%
25.03.2019 13:19:48 10,0 C 9,1 C 51,0%
25.03.2019 13:12:46 10,1 C 9,1 C 51,0%
25.03.2019 13:05:45 10,5 C 9,0 C 51,0%
25.03.2019 12:58:45 11,1 C 9,0 C 53,0%
25.03.2019 12:51:47 10,9 C 9,0 C 53,0%
25.03.2019 12:44:48 10,9 C 9,0 C 54,0%
25.03.2019 12:37:44 10,3 C 9,0 C 55,0%
25.03.2019 12:30:48 10,2 C 9,0 C 56,0%
25.03.2019 12:23:46 10,0 C 8,9 C 57,0%
25.03.2019 12:16:47 9,8 C 8,9 C 57,0%
25.03.2019 12:09:48 9,5 C 8,9 C 57,0%
25.03.2019 12:02:44 9,5 C 8,9 C 59,0%
25.03.2019 11:55:48 9,5 C 8,9 C 60,0%
25.03.2019 11:48:45 9,3 C 8,9 C 60,0%
25.03.2019 11:41:47 9,2 C 8,9 C 61,0%
25.03.2019 11:34:47 9,1 C 8,9 C 62,0%
25.03.2019 11:27:49 9,2 C 8,9 C 62,0%
25.03.2019 11:20:46 9,0 C 8,9 C 62,0%
25.03.2019 11:13:45 8,8 C 8,9 C 62,0%
25.03.2019 11:06:45 8,7 C 8,9 C 63,0%
25.03.2019 10:59:47 8,5 C 8,9 C 64,0%
25.03.2019 10:52:45 8,3 C 8,9 C 65,0%
25.03.2019 10:45:44 8,3 C 8,9 C 66,0%
25.03.2019 10:38:44 8,2 C 8,9 C 67,0%
25.03.2019 10:31:46 8,0 C 8,9 C 67,0%
25.03.2019 10:24:47 8,2 C 8,9 C 68,0%
25.03.2019 10:17:47 8,0 C 8,9 C 68,0%
25.03.2019 10:10:48 7,8 C 8,9 C 68,0%
25.03.2019 10:03:44 7,9 C 8,9 C 69,0%
25.03.2019 09:56:46 8,1 C 8,9 C 69,0%
25.03.2019 09:49:46 8,2 C 8,9 C 70,0%
25.03.2019 09:42:47 8,2 C 8,9 C 70,0%
25.03.2019 09:35:33 8,4 C 8,9 C 71,0%
25.03.2019 09:28:32 8,4 C 8,9 C 71,0%